TITAN 3C TRANSTAGE R/B, 2770

Orbit data source: Space-Track

TITAN 3C TRANSTAGE R/B, 2770 is space debris in HEO originally from a launch on Fri, 28 Apr 1967 UTC launched from the Air Force Eastern Test Range (AFETR). Debris objects in space refer to the collection of defunct objects orbiting the Earth. Examples of debris include non-operational satellites, rocket bodies, and fragments generated from explosions, collisions, or faulty payload assembly.

Loading next visibility...
Identifier
2770, 1967-040F
Orbit
HEO
Country
Flag of USUS
Related business
Manufacturer
Martin Marietta
Mission
Spacecraft
Bus & Motor
TRANSTAGE, Unknown motor
Mass
3,103 kg wet, 3,103 kg dry
Launch date (UTC)
1967-04-28 (59 years ago)
Launch vehicle
Unknown
Launch site
Air Force Eastern Test Range (AFETR)
Object type
Payload
Rocket body
Debris
Shape & HBR
Unknown
Radar Cross Section
Large (>1 m²)

Expand to show TLE details & history
Last TLE update: 2 weeks ago

TLE from 2 weeks ago
0 TITAN 3C TRANSTAGE R/B
1  2770U 67040F   26088.78784146 -.00001176  00000-0  00000+0 0  9997
2  2770  16.3869 209.9412 7908461 350.9140 359.2307  0.50944311 22892
Epoch: 2026-03-29T18:54Z
TLE epoch observation values (Epoch: 2026-03-29T18:54:29.502Z)
Latitude
-2.96047°
Longitude
88.99522°
Altitude
7,270.461 km
Speed
7.238 km/s
True Right ascension
13h 19m 13s
True Declination
-2° 57' 04"
Sunlit
Object was in full shadow at epoch
Visualization orbit readout
Latitude
Unknown
Longitude
Unknown
Altitude
Unknown
Speed
Unknown
Apparent Right ascension
Unknown
Apparent Declination
Unknown
Sunlit
N/A
Visualization observer readout
Local Sidereal Time
22:33:17
Azimuth
Unknown
Elevation
Unknown
Doppler factor
Unknown
Orbital elements
Apogee altitude
112,220.582 km
Perigee altitude
7,473.073 km
Semi-major axis
66,224.964 km
Eccentricity
0.79085
Inclination
16.3869°
RAAN
209.9412°
Arg. of periapsis
350.914°
True anomaly
349.29252°
Mean anomaly
359.2307°
Eccentric anomaly
356.33132°
Mean motion
0.12735 °/min
Orbital period
2,826.78 mins
BSTAR
0
Loading maneuver chart data...
Computing Atmospheric mass density...
Loading historical data...
Loading historical data...
Loading historical data...
Loading historical data...
Loading historical data...
Loading historical data...
Loading historical data...

Documentation

Showing up to 5 results
|